Regional Weather Roundup
Issued by NWS

Home | Current Version | Previous Version | Text Only | Print | Product List | Glossary Off
Versions: 1 2 3 4 5 6 7 8 9 10 11 12 13 14 15 16 17 18 19 20 21 22 23 24 25 26 27

000
ASUS45 KBOI 270310
RWRID

IDAHO REGIONAL WEATHER ROUNDUP
NATIONAL WEATHER SERVICE BOISE ID
900 PM MDT MON SEP 26 2016

NOTE: "FAIR" INDICATES FEW OR NO CLOUDS BELOW 12000 FEET
WITH NO SIGNIFICANT WEATHER AND/OR OBSTRUCTIONS TO VISIBILITY

IDZ012-014-270400-
SOUTHWEST IDAHO


CITY           SKY/WX    TMP DP  RH WIND       PRES   REMARKS
BOISE          CLEAR     72  40  31 CALM      30.14R
CALDWELL       CLEAR     65  43  44 N7        30.11F HAZE
MOUNTAIN HOME  CLEAR     66  45  45 SE6       30.14S
$$

IDZ016-017-270400-
SOUTHCENTRAL IDAHO


CITY           SKY/WX    TMP DP  RH WIND       PRES   REMARKS
BURLEY         CLEAR     57  44  62 E3        30.22S
JEROME         CLEAR     66  41  40 NE10      30.22S
TWIN FALLS     CLEAR     56  47  71 E7        30.22S
$$

IDZ019>023-270400-
SOUTHEAST IDAHO


CITY           SKY/WX    TMP DP  RH WIND       PRES   REMARKS
IDAHO FALLS    CLOUDY    55  46  71 CALM      30.30R
POCATELLO      CLOUDY    57  47  69 E6        30.28S
REXBURG        CLOUDY    57  47  69 CALM      30.30S
$$

IDZ006-010-011-018-031-032-270400-
CENTRAL IDAHO MOUNTAINS


CITY           SKY/WX    TMP DP  RH WIND       PRES   REMARKS
MCCALL         CLEAR     58  38  47 NE3       30.26R
HAILEY         CLEAR     55  46  71 NW8       30.33S
STANLEY          N/A     51  36  56 S5        30.36R
SALMON         CLEAR     54  45  71 E3        30.20R
CHALLIS        CLEAR     61  38  42 SE6       30.25R
$$

IDZ002-004-006-007-026-270400-
NORTHERN IDAHO


CITY           SKY/WX    TMP DP  RH WIND       PRES   REMARKS
LEWISTON       CLEAR     74  43  32 S6        29.97F
LOWELL           N/A     61  56  83 N3        30.08R
COEUR D`ALENE  NOT AVBL
MULLAN PASS    CLEAR     63  39  41 CALM      30.27F
$$




USA.gov is the U.S. government's official web portal to all federal, state and local government web resources and services.